Location: Buisson
(44.2787°N, 4.9969°E)
Time: 03:41:17
(UTC+00:00)

Meteor 1-28 Rocket - Pass Details

Date: 18 April 2021
Orbit: 503 x 522 km, 97.4° (Epoch: 15 May)

Event Time Altitude Azimuth Distance (km) Brightness Sun altitude
Exits shadow 02:12:04 49° 8° (N) 661 3.9 -24.9°
Drops below altitude 10° 02:14:55 10° 352° (N) 1,732 6.3 -24.6°
Sets 02:17:01 0° 350° (N) 2,620 7.3 -24.3°
